Powrót do katalogu

STARLINK-36358

AktywnyŁącznośćSSO
NORAD 67598·PAYLOAD·🇺🇸 United States

Wystrzelony Jan 29, 2026 z Vandenberg Space Force Base

Loading…

Następne Przeloty (najbliższe 24 godziny)

TLE

ŚwieżeSource: CelesTrak SupGP

Epoka: Sep 15, 2026, 03:13 UTC

1 67598C 26018K   26258.13451389 -.00020088  00000+0 -62351-3 0  2586
2 67598  97.2846 321.6356 0001006  92.4862 350.7948 15.33453669    19

Śledź STARLINK-36358 w czasie rzeczywistym z AllMySat

Download on the App Store